Temperature
21 21 21 21 18 17 19 20 20 20 21 21 21 20 19 18 18 17 17 18 18 18 18 18 17 18 18 18 17 18 18 17 17 17 17 17 17 17 18 18 18 18 18 18 18 18 18 18 18
21 21 21 21 18 18 19 20 20 21 21 21 21 20 19 18 18 18 17 17 18 18 18 18 17 17 17 17 17 17 17 17 17 17 17 17 17 17 18 18 18 18 18 17 17 18 18 18 18
22 21 21 18 18 18 19 20 20 21 22 22 21 20 19 18 18 18 18 18 18 18 18 18 18 17 17 17 17 17 17 17 17 17 17 17 17 17 17 17 17 17 17 17 17 17 17 17 17
22 21 21 18 19 20 20 20 21 21 22 21 20 19 19 19 19 18 18 18 18 18 18 17 17 17 17 17 17 17 17 17 17 17 17 17 17 17 17 17 17 17 17 17 17 17 17 17 17
22 21 18 18 20 20 20 21 22 21 21 20 20 18 18 19 19 18 18 18 18 18 17 17 17 17 17 17 17 17 17 17 17 17 17 17 17 17 17 17 17 17 17 17 17 17 17 17 17
22 19 18 18 20 21 21 22 22 21 20 20 19 18 18 18 18 18 18 18 18 18 17 17 17 17 17 17 17 17 17 17 17 17 17 17 17 17 17 17 17 17 17 17 17 17 17 17 17
21 18 18 19 19 21 22 22 22 21 20 20 20 18 18 18 18 18 18 18 18 18 18 17 17 17 17 17 17 17 17 17 17 17 17 17 17 17 16 17 17 17 16 16 16 16 16 16 16
23 18 19 19 20 21 22 23 22 22 21 21 20 18 18 18 18 18 18 18 18 18 18 17 17 17 17 17 17 17 17 17 16 16 17 16 16 16 16 16 16 16 16 16 16 16 16 16 16
23 18 19 20 20 20 22 22 22 22 21 21 20 20 20 19 18 18 18 18 18 18 17 17 17 17 17 17 16 16 16 16 16 16 16 16 16 16 16 16 16 16 16 16 16 16 16 16 16
21 18 20 21 21 20 22 22 22 21 20 20 20 20 19 19 19 18 18 18 18 18 18 17 17 17 17 17 16 16 16 16 16 16 16 16 16 16 16 16 16 15 15 16 16 16 16 16 15
21 20 21 22 22 22 22 22 22 21 19 20 19 19 19 19 19 18 18 18 18 18 18 17 17 17 17 17 16 16 16 16 16 16 16 16 16 16 16 15 15 15 15 15 15 15 15 15 15
21 22 22 22 23 23 22 22 22 21 21 21 20 19 19 19 19 18 18 18 18 18 17 17 17 17 17 17 16 16 16 16 16 16 16 16 16 16 15 15 15 15 15 15 15 15 15 15 15
22 22 23 23 23 23 22 22 21 21 21 20 20 19 19 19 19 18 18 18 18 18 17 17 17 17 17 17 16 16 16 16 16 16 16 16 16 16 16 15 15 15 15 15 15 15 15 15 15
22 22 22 23 23 23 22 21 21 21 21 20 19 19 19 19 18 18 18 18 18 18 17 17 17 17 17 17 16 16 16 16 16 16 16 16 16 16 15 15 15 15 15 15 15 15 15 15 15
23 22 21 22 22 22 22 20 20 21 20 19 19 19 18 19 18 18 18 18 18 18 18 17 17 17 17 17 16 16 16 16 16 16 16 16 16 15 15 15 15 15 15 15 15 15 15 15 15
22 21 20 21 22 22 21 19 20 20 20 19 19 19 19 18 18 18 18 18 18 18 17 17 17 17 17 17 16 16 16 16 16 16 16 16 15 15 15 15 15 15 15 15 15 15 15 15 15
20 20 20 21 21 21 20 19 19 20 20 19 19 19 19 18 18 18 18 18 18 17 17 17 17 17 17 17 16 16 16 16 16 16 16 16 15 15 15 15 15 15 15 15 15 14 15 14 14
20 20 20 20 21 21 20 19 19 20 20 19 19 19 19 18 18 18 18 18 18 17 17 17 17 17 16 16 16 16 16 16 16 16 15 15 15 15 15 15 15 15 15 15 14 14 14 14 14
21 21 20 20 21 20 19 19 19 19 19 18 18 18 18 18 18 18 18 18 18 17 17 17 17 16 16 16 16 16 16 16 15 15 15 15 15 15 15 15 15 15 15 14 14 14 14 14 14
21 20 20 21 21 20 19 19 19 19 19 19 19 18 18 18 18 18 18 18 18 17 17 17 17 16 16 16 16 16 16 15 15 15 15 15 15 15 15 15 15 15 14 14 14 14 14 14 14
21 21 20 21 20 20 19 18 18 18 19 19 19 19 18 18 18 18 18 17 17 17 17 17 17 16 16 16 16 16 15 15 15 15 15 15 15 15 15 15 15 14 14 14 14 14 14 14 14
21 22 21 21 19 18 19 17 17 18 18 18 18 18 18 18 18 18 18 17 17 17 17 17 16 16 16 16 16 15 15 15 15 15 15 15 14 14 14 14 14 14 14 14 14 14 14 14 14
21 22 21 21 19 18 18 17 17 17 17 17 17 17 18 18 18 18 18 17 17 17 17 17 16 16 16 16 15 15 15 15 15 14 14 15 14 14 14 14 14 14 14 14 14 14 14 14 14
22 20 19 17 17 17 18 17 16 16 17 17 17 17 17 18 18 18 17 17 17 17 17 16 16 16 16 16 15 15 15 15 15 14 14 14 14 14 14 14 14 14 14 14 14 14 14 14 14
20 17 17 17 16 17 18 17 16 17 18 18 17 17 18 18 17 17 17 17 17 17 16 16 16 16 16 16 15 15 15 15 14 14 14 14 14 14 14 14 14 14 14 14 14 13 13 13 13
20 18 17 17 17 16 17 17 17 18 19 19 19 18 18 17 17 17 17 17 17 16 16 16 16 16 16 15 15 15 15 15 14 14 14 14 14 14 14 14 14 14 13 13 13 13 13 13 13
20 18 18 16 17 16 16 17 18 18 18 18 18 18 17 17 17 17 17 17 16 16 16 16 16 16 15 15 15 15 15 15 14 14 14 14 14 14 13 13 13 13 13 13 13 13 13 13 13
20 18 16 16 17 16 17 17 16 17 17 17 16 17 17 17 17 17 17 17 16 16 16 16 16 16 15 15 15 15 15 14 14 14 14 14 14 13 13 13 13 13 13 13 13 13 13 13 13
19 19 17 15 15 15 16 16 17 17 17 16 16 17 18 17 17 17 17 17 16 16 16 15 15 15 15 15 15 15 14 14 14 14 14 13 13 13 13 13 13 13 13 13 13 13 13 13 13
19 19 17 16 16 15 14 15 18 17 17 17 17 17 18 17 17 17 16 16 16 16 15 15 15 15 15 15 15 14 14 14 14 14 14 13 13 13 13 13 13 13 13 13 13 13 13 12 13
Wind_Speed
4 2 3 3 5 5 4 2 2 3 4 5 8 10 8 7 5 5 3 6 8 5 4 6 8 8 9 9 9 9 10 10 11 11 12 11 11 11 11 11 12 13 13 13 13 13 12 12 12
2 1 3 5 5 4 2 1 4 4 5 7 8 8 8 6 5 6 3 7 9 7 6 7 8 8 9 9 9 9 10 10 10 11 11 11 11 11 11 11 12 13 13 13 13 13 13 12 13
1 0 3 4 4 4 4 2 5 4 5 5 5 5 5 5 4 4 5 9 8 7 6 7 8 9 9 9 9 10 10 10 10 10 11 11 11 12 13 13 14 13 13 13 13 13 13 13 13
3 4 5 6 4 1 5 4 5 5 5 6 6 6 4 3 4 5 8 10 9 6 6 8 9 9 9 9 9 9 10 10 10 10 11 11 12 12 13 14 14 13 13 13 13 13 13 13 14
4 5 6 4 3 2 3 5 6 6 4 5 7 6 4 3 6 8 8 9 9 6 6 8 9 9 9 9 9 9 10 10 11 11 11 11 12 12 13 14 14 13 13 12 13 13 13 13 14
4 4 5 3 2 2 2 4 7 8 7 7 7 6 2 1 6 7 8 7 7 7 6 7 8 8 8 8 9 9 10 10 11 11 11 12 12 12 12 13 13 13 12 12 12 13 13 13 13
5 5 4 4 3 2 2 4 7 7 6 5 7 6 3 2 5 7 7 7 6 6 6 5 6 6 7 7 8 8 9 9 10 10 10 11 11 11 11 12 11 11 11 12 12 12 12 13 13
5 5 4 2 3 1 2 4 6 7 5 6 6 7 5 6 5 7 6 6 6 6 5 4 4 5 5 5 6 7 8 8 8 9 9 10 10 10 10 10 10 10 11 11 12 12 11 12 12
5 5 3 2 4 2 3 5 3 5 7 4 4 5 6 8 8 8 5 4 4 5 4 4 4 4 4 3 5 6 6 6 6 7 8 8 7 7 7 8 9 10 10 10 10 10 11 11 11
5 4 2 3 5 5 4 5 4 5 6 5 6 6 9 9 9 8 6 5 5 5 4 3 4 3 3 4 4 4 4 4 4 4 5 5 5 5 6 7 8 9 9 9 9 9 9 9 8
4 5 3 3 4 6 5 3 4 8 4 6 10 10 9 9 8 7 5 5 5 4 4 4 4 4 3 3 3 3 3 3 4 4 5 5 5 4 5 5 5 6 7 6 7 6 6 7 6
3 2 4 4 4 4 3 3 4 5 6 9 12 13 10 9 8 6 5 5 5 5 4 3 4 4 4 4 3 3 3 2 3 4 5 5 3 3 3 4 4 4 5 5 6 6 7 8 8
3 2 3 4 5 5 5 4 5 3 6 10 12 11 10 9 7 5 5 6 6 6 4 3 4 4 4 4 2 3 3 3 3 4 5 6 4 3 3 3 4 4 5 5 5 6 7 7 7
3 3 3 4 4 4 6 3 4 3 9 12 12 10 8 8 7 6 6 5 5 5 4 3 4 5 5 4 3 2 3 4 4 4 5 6 5 4 4 4 4 4 5 5 5 6 6 5 5
3 4 2 1 3 3 6 2 3 6 11 12 10 9 8 7 7 7 7 6 6 5 4 3 4 5 5 5 3 3 3 4 4 4 5 7 6 5 5 4 4 4 6 6 6 6 6 5 5
2 3 1 4 3 3 6 3 3 7 11 10 9 8 7 6 6 6 6 6 5 5 4 3 4 5 5 5 4 3 3 4 3 4 5 6 7 7 6 4 3 5 6 5 4 4 4 4 4
1 1 3 3 3 4 5 3 3 6 11 10 9 7 7 5 4 4 5 6 6 5 5 4 4 5 4 4 4 4 4 3 3 4 4 5 6 7 6 4 3 5 4 3 4 3 3 3 3
4 3 3 3 2 5 4 4 3 5 9 9 8 7 6 6 5 5 5 6 6 5 5 5 4 5 5 4 4 3 4 3 3 3 3 5 5 6 6 4 4 5 3 3 3 3 3 2 2
3 2 2 4 3 4 4 4 5 5 7 8 7 7 7 6 5 5 5 6 6 5 5 5 5 4 4 3 3 3 2 1 2 3 4 5 5 6 5 4 3 3 3 2 3 3 3 2 2
2 1 1 1 2 3 3 3 4 6 9 10 11 9 8 6 5 5 5 5 6 6 5 5 5 4 4 3 2 2 2 1 1 2 3 4 5 4 5 4 2 2 3 3 2 3 2 1 1
1 3 3 2 1 2 2 3 2 2 4 5 7 8 8 10 9 7 6 5 6 5 5 5 5 4 3 4 3 3 3 3 3 2 2 1 3 3 3 4 4 3 3 2 2 3 3 2 0
3 4 4 4 3 2 3 2 6 4 3 5 7 7 8 8 8 7 7 7 6 6 5 5 4 4 4 5 5 5 3 2 1 0 0 1 2 2 3 4 4 3 2 2 2 2 2 3 1
5 3 2 3 3 1 1 3 5 2 4 6 7 7 8 8 9 8 8 8 7 6 5 5 5 4 4 5 5 5 3 2 1 1 1 1 1 1 2 2 3 2 2 2 2 2 2 2 2
1 3 5 5 4 1 5 5 5 4 8 7 7 8 9 9 8 8 7 6 5 4 5 5 5 4 4 5 5 5 5 3 3 1 1 0 0 1 1 1 1 2 2 2 2 2 2 2 2
5 5 3 4 3 5 3 3 5 6 7 9 10 10 9 9 8 8 7 6 6 5 5 5 6 4 4 5 5 5 5 5 4 3 3 2 0 0 1 0 0 0 1 2 2 2 1 2 2
2 7 6 4 4 4 2 3 5 4 4 7 8 8 8 9 8 9 9 8 7 7 6 5 6 5 5 5 5 5 5 4 3 4 3 3 2 2 1 1 1 1 1 1 1 1 1 1 2
2 3 6 6 2 1 3 2 3 2 3 5 7 7 8 8 8 9 8 7 7 6 6 6 7 6 5 6 5 5 5 4 4 4 3 3 2 2 2 1 1 1 1 1 1 1 1 1 1
4 4 5 3 2 2 3 3 4 4 4 5 6 7 7 7 6 6 6 6 6 5 4 4 5 6 5 5 5 5 5 4 4 4 4 3 3 2 2 2 2 1 1 1 1 1 1 1 1
1 1 4 4 4 4 3 5 5 8 7 7 7 8 8 8 7 6 6 5 5 4 4 3 3 3 3 4 4 4 4 4 4 4 4 3 3 3 3 3 2 2 2 1 1 1 1 1 1
5 5 5 4 3 4 4 6 5 6 7 7 7 7 7 7 7 6 6 5 4 4 3 3 3 3 3 4 4 4 4 3 4 4 4 4 4 3 3 3 3 2 2 2 2 2 2 2 2
Wind_Direction
296 336 89 65 56 58 70 35 99 70 55 57 73 83 85 69 90 126 194 138 133 129 112 92 88 82 81 81 79 78 77 77 76 75 77 78 76 75 77 86 90 90 89 88 88 88 86 87 87
342 5 64 57 78 81 62 113 102 107 131 117 85 81 79 73 86 116 131 138 135 128 118 106 97 91 88 87 84 83 82 79 77 77 77 79 76 74 76 89 94 93 91 89 87 87 85 85 84
315 39 73 65 85 134 152 176 129 112 108 106 90 64 78 107 111 136 152 142 132 123 121 116 106 98 94 92 91 88 85 81 80 80 80 80 79 77 79 89 92 91 91 89 88 87 86 85 84
59 44 56 68 76 146 159 172 141 111 73 71 98 69 58 81 133 147 142 136 132 134 130 125 115 107 99 94 92 90 86 83 83 83 82 82 80 80 81 84 87 88 88 88 88 88 88 89 87
63 68 60 59 63 74 131 146 123 105 92 80 89 87 57 19 111 125 131 134 137 145 141 133 125 115 107 101 98 96 90 88 86 86 88 86 83 83 85 85 85 86 88 90 89 88 91 93 89
62 68 80 87 81 69 84 122 113 104 110 103 98 103 108 135 121 129 129 135 136 145 143 138 132 123 113 107 102 100 95 92 92 89 87 88 87 87 88 88 87 87 88 90 90 88 89 91 91
104 91 109 125 109 71 115 108 107 113 113 131 127 109 142 187 153 141 132 130 132 136 138 136 135 128 119 112 106 105 99 96 95 93 90 90 89 89 88 90 91 91 93 92 89 87 87 88 89
124 100 85 106 116 116 109 99 116 115 114 129 119 131 169 199 164 136 124 121 129 133 140 146 142 138 128 120 112 108 106 101 98 95 95 92 89 88 88 91 95 95 96 93 90 88 86 85 87
88 80 102 156 152 165 121 96 91 97 103 92 104 145 162 156 135 117 110 104 122 134 149 154 144 148 146 135 116 104 103 106 100 94 100 93 87 86 88 93 97 97 95 94 91 89 87 84 84
87 113 178 178 159 146 126 117 124 94 83 76 77 94 122 133 130 132 137 137 140 146 155 152 143 143 143 130 107 94 95 91 97 101 104 106 100 96 93 92 92 93 88 87 87 85 84 84 81
119 151 155 124 139 127 116 103 96 113 110 144 139 137 131 127 133 143 144 138 139 144 142 145 142 135 129 118 114 96 94 85 86 97 104 106 97 91 84 83 71 71 75 71 71 72 79 87 88
115 142 139 138 121 114 120 113 92 123 165 155 143 139 132 132 136 141 142 136 127 119 125 131 121 114 120 120 112 109 99 90 92 100 108 109 95 90 83 76 71 75 79 74 70 73 91 93 91
129 133 124 133 121 126 105 105 113 117 134 129 127 126 133 139 138 140 131 124 116 113 120 130 123 121 117 106 106 107 101 99 96 89 100 109 103 100 94 87 88 86 88 84 76 76 85 86 86
159 139 130 127 118 119 110 99 101 143 130 126 128 131 135 142 143 129 123 127 124 125 132 133 128 128 117 110 111 110 111 104 97 92 96 104 105 104 99 85 78 80 85 85 86 85 85 82 80
114 100 76 187 153 154 113 69 160 161 132 132 139 141 140 145 140 142 153 153 147 144 137 129 135 117 113 111 112 115 113 106 103 101 91 92 101 108 102 93 86 88 92 90 85 78 78 78 75
70 85 195 252 176 157 123 194 222 163 139 142 150 149 149 152 148 152 153 151 149 137 129 118 118 112 114 111 105 108 108 107 106 103 95 91 97 104 100 98 99 101 97 91 84 75 75 72 72
32 199 222 269 193 146 137 193 209 165 147 153 160 161 158 154 148 156 149 142 142 136 128 111 99 112 113 109 105 102 100 97 102 105 103 98 99 104 109 109 114 107 94 90 100 86 94 91 81
228 212 209 222 225 136 150 197 199 173 157 164 167 168 164 158 171 167 152 142 140 136 127 120 101 102 107 102 88 74 69 65 78 92 106 106 103 106 110 112 112 108 96 88 96 99 81 99 105
203 181 200 216 183 141 171 200 217 184 162 168 172 173 173 177 170 151 148 143 134 126 123 122 110 106 107 104 105 98 87 70 60 74 89 95 104 110 112 109 109 107 112 128 125 108 92 83 103
202 156 173 207 175 147 176 226 225 186 181 181 178 180 179 166 149 147 142 137 135 139 140 132 126 124 124 124 136 132 128 104 84 62 74 87 100 115 119 113 107 113 112 112 115 114 112 137 138
207 182 196 188 110 80 106 317 277 233 182 174 174 176 172 165 167 162 150 142 139 143 150 148 143 135 128 117 98 84 66 52 43 38 37 47 95 105 121 128 130 131 130 141 146 134 128 151 262
228 226 190 163 128 240 160 238 267 225 189 180 179 173 173 168 166 163 156 153 156 161 152 143 144 140 134 125 122 120 114 117 196 206 45 20 75 95 115 133 138 140 136 147 166 142 143 139 148
216 225 191 191 169 222 232 176 270 204 197 203 190 181 175 172 170 166 162 164 163 159 151 148 142 143 142 136 140 136 128 145 129 91 71 39 24 71 102 126 144 152 154 163 150 134 137 143 155
147 45 34 45 87 260 232 176 257 218 207 198 191 184 179 176 174 169 164 154 155 151 149 148 146 156 158 150 152 150 153 150 129 129 137 24 353 360 35 108 150 176 177 176 174 169 158 162 154
77 82 37 5 6 254 251 170 243 238 204 187 183 186 181 177 174 170 167 165 165 162 161 162 161 171 176 167 169 172 171 168 168 177 185 180 193 265 275 90 117 177 203 192 179 168 181 177 169
173 141 155 194 227 273 321 210 252 255 188 173 172 172 168 171 177 178 180 178 175 174 172 171 173 182 187 185 188 185 179 178 184 187 183 188 197 211 219 179 145 155 162 163 158 167 208 179 186
153 184 176 155 208 254 283 286 316 23 114 143 154 158 166 175 179 182 182 179 179 178 180 181 178 184 191 192 192 189 187 182 187 189 186 193 204 206 187 168 139 148 152 157 141 150 211 168 181
165 153 91 120 173 248 280 242 225 216 196 171 163 165 167 168 174 176 177 178 182 185 189 184 181 187 194 195 195 194 197 191 187 174 179 189 204 200 178 177 170 170 165 151 140 157 209 166 198
168 144 123 135 161 165 234 265 226 198 190 178 179 177 171 172 177 176 173 172 167 166 173 174 180 184 189 196 200 192 196 193 181 176 186 187 191 193 188 192 191 195 200 193 148 185 168 170 203
176 184 157 166 221 172 180 263 276 199 186 170 174 181 179 176 177 171 165 163 162 171 175 173 175 182 196 191 185 191 192 189 186 186 188 182 186 198 197 186 195 210 212 197 183 196 189 182 188
Height
1503 1502 1501 1502 1505 1516 1519 1515 1510 1509 1509 1509 1508 1509 1512 1516 1520 1527 1523 1521 1521 1521 1520 1519 1517 1516 1515 1514 1513 1512 1511 1510 1509 1508 1507 1506 1505 1503 1501 1501 1502 1502 1503 1503 1503 1504 1504 1505 1505
1503 1502 1503 1503 1513 1526 1523 1514 1511 1509 1509 1509 1510 1512 1514 1518 1519 1521 1521 1522 1522 1521 1520 1519 1518 1517 1516 1515 1514 1513 1512 1511 1510 1509 1508 1507 1505 1502 1499 1498 1500 1503 1504 1505 1505 1505 1506 1506 1506
1503 1502 1504 1506 1516 1523 1521 1513 1510 1508 1508 1509 1512 1514 1516 1519 1521 1521 1522 1522 1522 1522 1521 1520 1519 1518 1517 1516 1515 1514 1513 1512 1512 1511 1510 1508 1507 1504 1500 1499 1501 1504 1505 1506 1506 1507 1507 1507 1507
1503 1504 1505 1512 1517 1514 1512 1510 1508 1509 1510 1510 1512 1516 1519 1521 1521 1522 1522 1523 1523 1523 1522 1521 1520 1519 1518 1517 1516 1516 1515 1514 1513 1512 1511 1510 1509 1507 1505 1504 1505 1506 1507 1507 1508 1508 1509 1509 1509
1503 1504 1511 1518 1516 1511 1508 1508 1508 1509 1511 1513 1514 1518 1521 1522 1522 1522 1523 1524 1524 1523 1523 1522 1521 1521 1520 1519 1518 1517 1516 1515 1515 1514 1513 1512 1511 1510 1509 1508 1508 1509 1509 1509 1509 1510 1510 1510 1511
1504 1507 1520 1524 1517 1511 1509 1508 1509 1511 1513 1514 1515 1519 1523 1524 1523 1524 1524 1524 1524 1524 1524 1523 1522 1522 1521 1520 1519 1519 1518 1517 1516 1516 1515 1514 1513 1512 1512 1511 1511 1511 1511 1511 1511 1511 1512 1512 1512
1506 1511 1519 1520 1519 1514 1510 1509 1509 1511 1513 1515 1515 1519 1523 1524 1525 1525 1525 1525 1525 1525 1525 1524 1524 1523 1522 1522 1521 1520 1519 1519 1518 1518 1517 1516 1515 1515 1514 1513 1513 1513 1512 1512 1512 1513 1513 1514 1514
1504 1510 1517 1519 1519 1516 1510 1509 1511 1511 1514 1515 1516 1518 1521 1524 1525 1525 1526 1526 1526 1526 1526 1525 1525 1524 1524 1523 1523 1522 1521 1521 1520 1519 1519 1518 1517 1517 1516 1515 1515 1515 1515 1514 1514 1514 1515 1515 1515
1505 1515 1521 1518 1517 1514 1510 1510 1512 1513 1514 1515 1516 1517 1519 1523 1525 1525 1526 1527 1527 1527 1527 1526 1526 1526 1525 1525 1524 1523 1523 1522 1522 1521 1521 1520 1519 1519 1518 1517 1517 1516 1516 1516 1516 1516 1516 1516 1517
1506 1518 1515 1510 1510 1510 1510 1510 1512 1514 1515 1517 1518 1519 1520 1522 1524 1525 1526 1526 1527 1527 1527 1527 1527 1527 1526 1526 1525 1525 1524 1524 1523 1523 1522 1522 1521 1521 1520 1519 1519 1518 1518 1517 1517 1516 1516 1517 1518
1506 1511 1509 1509 1508 1508 1510 1511 1512 1514 1517 1517 1517 1519 1521 1523 1525 1526 1526 1527 1527 1528 1528 1528 1528 1528 1527 1527 1527 1526 1526 1525 1525 1524 1524 1523 1523 1522 1522 1521 1521 1520 1520 1519 1518 1517 1517 1518 1519
1507 1507 1507 1508 1508 1509 1510 1511 1513 1514 1516 1516 1517 1519 1521 1523 1524 1526 1526 1527 1528 1528 1528 1529 1529 1528 1528 1528 1528 1527 1527 1526 1526 1526 1525 1525 1524 1524 1524 1523 1523 1522 1522 1521 1519 1518 1517 1519 1521
1507 1508 1508 1508 1509 1510 1510 1512 1513 1515 1516 1517 1519 1520 1522 1523 1524 1526 1527 1527 1528 1528 1529 1529 1529 1529 1529 1529 1528 1528 1528 1527 1527 1527 1527 1527 1526 1525 1525 1525 1525 1524 1524 1523 1522 1521 1521 1522 1523
1506 1507 1508 1508 1509 1510 1511 1513 1514 1516 1517 1518 1520 1521 1522 1523 1525 1525 1526 1527 1528 1528 1529 1529 1529 1529 1529 1529 1529 1529 1529 1529 1529 1528 1528 1528 1528 1527 1527 1527 1526 1526 1526 1525 1525 1524 1523 1524 1524
1506 1509 1510 1509 1509 1510 1512 1517 1516 1516 1517 1519 1520 1522 1523 1524 1525 1525 1526 1527 1527 1528 1529 1529 1530 1530 1530 1530 1529 1530 1529 1529 1529 1529 1529 1529 1529 1529 1528 1528 1528 1528 1528 1527 1527 1526 1526 1526 1526
1508 1513 1519 1511 1508 1510 1515 1524 1516 1516 1516 1518 1520 1521 1523 1524 1525 1526 1526 1527 1527 1528 1528 1529 1530 1530 1530 1530 1530 1530 1530 1530 1530 1530 1530 1530 1530 1530 1530 1529 1529 1529 1529 1529 1528 1528 1528 1528 1528
1515 1521 1520 1514 1508 1509 1514 1520 1515 1515 1516 1517 1519 1520 1522 1523 1524 1525 1526 1526 1527 1527 1528 1529 1529 1530 1530 1530 1530 1530 1531 1531 1531 1531 1531 1531 1531 1531 1530 1530 1530 1530 1530 1530 1530 1530 1530 1530 1530
1521 1520 1518 1516 1509 1510 1515 1517 1514 1515 1515 1516 1518 1520 1521 1522 1523 1525 1525 1526 1527 1528 1528 1529 1529 1530 1530 1530 1531 1531 1531 1531 1531 1532 1532 1532 1532 1531 1531 1531 1531 1531 1531 1531 1531 1531 1531 1531 1531
1509 1513 1516 1513 1508 1511 1515 1516 1514 1513 1515 1516 1517 1519 1520 1521 1523 1524 1525 1526 1526 1527 1528 1528 1529 1529 1529 1530 1530 1530 1530 1531 1531 1532 1532 1532 1532 1532 1531 1531 1531 1531 1531 1531 1531 1531 1531 1532 1532
1507 1513 1514 1511 1507 1511 1516 1516 1512 1511 1512 1513 1514 1516 1518 1520 1522 1523 1524 1525 1525 1526 1527 1528 1528 1529 1529 1529 1530 1530 1531 1531 1531 1532 1532 1532 1532 1532 1531 1531 1531 1531 1531 1531 1532 1532 1532 1532 1533
1508 1511 1512 1512 1510 1511 1516 1520 1515 1512 1511 1512 1513 1514 1516 1518 1520 1521 1523 1524 1524 1525 1526 1527 1528 1528 1529 1529 1530 1530 1530 1531 1531 1531 1532 1532 1532 1531 1531 1531 1531 1531 1531 1531 1531 1532 1532 1532 1532
1510 1503 1504 1508 1516 1523 1519 1534 1520 1513 1512 1512 1512 1513 1514 1516 1518 1520 1521 1522 1523 1524 1525 1526 1527 1527 1528 1529 1529 1529 1529 1530 1530 1530 1531 1531 1531 1531 1531 1531 1531 1531 1531 1531 1531 1531 1531 1532 1532
1503 1499 1502 1506 1513 1522 1521 1529 1525 1514 1515 1513 1511 1512 1513 1515 1516 1518 1519 1520 1522 1523 1524 1525 1526 1526 1527 1527 1528 1528 1529 1529 1530 1530 1530 1530 1530 1530 1530 1531 1531 1530 1530 1530 1531 1530 1531 1531 1531
1497 1502 1506 1513 1519 1531 1521 1527 1527 1517 1511 1509 1509 1510 1511 1513 1515 1516 1518 1519 1521 1522 1523 1524 1524 1525 1526 1526 1527 1527 1528 1528 1529 1529 1529 1529 1529 1529 1529 1530 1530 1530 1530 1530 1530 1530 1530 1530 1530
1501 1516 1531 1533 1538 1533 1517 1522 1522 1506 1502 1503 1505 1507 1509 1511 1513 1514 1516 1517 1518 1520 1521 1522 1523 1523 1524 1525 1525 1526 1527 1527 1527 1528 1528 1528 1528 1528 1528 1528 1529 1529 1529 1529 1529 1529 1529 1529 1529
1503 1512 1531 1539 1540 1533 1520 1522 1514 1501 1499 1500 1502 1504 1507 1510 1511 1512 1514 1515 1516 1518 1519 1520 1521 1522 1523 1523 1524 1524 1525 1526 1526 1527 1527 1527 1527 1527 1527 1527 1527 1527 1527 1528 1528 1528 1528 1528 1528
1503 1509 1510 1524 1526 1532 1527 1517 1507 1500 1500 1500 1502 1504 1506 1508 1510 1511 1512 1514 1515 1516 1517 1518 1519 1520 1520 1521 1522 1523 1523 1524 1524 1525 1525 1526 1526 1526 1526 1526 1526 1526 1526 1526 1526 1526 1526 1526 1526
1497 1503 1516 1523 1532 1537 1529 1522 1518 1507 1504 1502 1503 1503 1505 1506 1508 1510 1511 1512 1513 1515 1515 1516 1517 1517 1518 1519 1520 1520 1521 1522 1522 1523 1523 1524 1524 1524 1524 1524 1524 1524 1524 1524 1524 1524 1524 1524 1524
1500 1504 1510 1521 1525 1534 1536 1527 1503 1502 1500 1500 1501 1502 1503 1505 1506 1508 1509 1510 1512 1513 1513 1514 1515 1515 1516 1516 1517 1518 1519 1520 1520 1521 1521 1522 1522 1522 1522 1522 1522 1522 1522 1522 1522 1522 1522 1522 1522
1496 1500 1508 1520 1523 1526 1532 1526 1497 1497 1497 1498 1499 1501 1502 1503 1504 1506 1507 1509 1509 1510 1511 1512 1512 1513 1513 1514 1515 1515 1516 1517 1518 1518 1519 1519 1520 1520 1520 1520 1520 1520 1521 1521 1520 1520 1520 1520 1520